Wind_Speed
3 7 7 6 3 4 7 9 13 12 18 18 14 15 18 18 19 20 19 19 19 21 21 20 20 20 22 22 22 21 22 22 21 21 17 13 12 12 12 10 11 10 8
5 5 8 9 6 3 2 6 9 11 18 17 16 18 19 20 21 22 21 20 20 20 21 21 20 20 20 20 22 23 22 21 23 20 18 8 11 11 12 11 10 10 8
5 5 8 9 8 6 3 1 5 8 16 15 17 18 16 17 18 18 17 18 18 19 18 17 16 19 20 22 22 24 24 22 25 25 14 7 6 16 12 10 10 9 7
5 6 7 9 9 8 5 3 3 6 9 17 18 19 17 13 12 11 13 14 13 15 19 13 14 9 15 17 22 25 24 22 25 24 23 5 10 7 7 14 10 9 9
3 5 5 5 6 6 3 2 3 6 9 11 17 22 20 20 16 19 17 13 14 13 14 15 18 15 6 7 16 17 20 20 25 20 20 10 17 15 12 10 15 12 9
6 3 3 2 2 2 1 2 5 7 9 13 17 24 30 27 26 25 24 22 22 22 23 17 18 17 17 12 12 15 16 17 18 20 19 15 12 11 9 9 16 14 10
2 3 2 2 4 6 7 8 10 12 13 14 15 16 17 20 24 26 23 20 21 23 24 22 21 21 19 16 18 14 18 20 13 17 17 17 17 10 12 11 16 13 13
4 3 4 6 11 12 14 14 15 16 16 16 16 16 17 20 18 16 15 19 18 18 19 18 19 16 13 13 12 13 14 16 15 16 16 15 13 13 13 12 21 10 14
5 8 11 17 23 22 19 17 19 18 16 15 14 15 18 19 17 17 19 21 20 15 19 18 17 16 14 12 8 10 14 15 17 17 18 15 16 13 13 13 21 17 8
11 15 17 21 22 24 24 13 16 20 19 18 17 18 19 21 17 15 23 24 19 21 21 17 14 12 14 15 15 13 14 14 15 16 16 16 15 14 14 14 17 18 13
19 19 16 21 22 22 18 18 17 20 19 21 19 15 13 11 12 13 14 18 25 24 23 21 19 18 18 18 17 16 17 19 17 15 15 16 14 15 15 15 18 18 16
16 17 15 19 21 18 15 21 18 19 16 19 20 12 11 11 12 18 17 21 25 23 23 21 19 19 17 18 19 19 18 19 15 12 15 14 14 15 16 17 18 17 14
17 17 16 13 13 14 10 12 11 13 16 16 17 15 17 21 18 21 20 21 23 25 28 28 28 23 20 20 18 17 16 13 11 12 12 12 13 15 16 17 18 18 17
18 18 16 13 6 10 10 9 10 10 12 14 17 18 18 19 21 23 23 27 22 27 32 31 28 23 21 20 19 16 11 11 11 10 9 9 10 12 15 17 19 18 18
19 20 17 12 9 8 8 10 9 12 12 14 15 17 16 17 18 19 20 21 25 28 31 31 30 31 27 24 20 19 20 15 11 10 9 9 9 10 14 15 19 19 18
21 17 17 9 6 8 10 12 14 14 13 14 15 16 16 17 20 19 23 24 25 25 28 30 29 30 27 28 26 22 14 14 14 13 12 9 8 11 11 12 18 20 18
16 18 15 8 9 11 12 14 16 17 16 15 15 15 15 13 17 21 23 23 26 27 28 27 27 35 31 27 25 21 17 15 15 14 13 10 9 14 14 12 13 14 13
17 17 14 14 15 9 12 12 15 16 15 15 13 12 11 12 12 15 21 22 24 24 26 27 27 27 29 27 27 25 18 16 14 13 16 13 11 10 11 15 12 9 7
17 18 22 23 18 10 9 12 14 16 17 14 10 9 9 10 10 11 12 16 20 23 23 24 26 27 28 30 28 27 16 14 14 14 17 14 16 15 17 17 17 16 14
18 23 23 26 26 12 7 11 10 13 13 10 8 9 6 7 7 8 11 16 20 22 21 23 26 28 28 27 28 24 18 17 14 14 13 16 16 18 20 16 19 14 12
19 20 23 26 27 10 5 4 7 7 8 8 7 5 4 4 6 10 13 18 21 24 25 25 25 26 25 28 28 28 20 17 16 15 15 13 18 15 19 14 13 12 14
17 17 20 28 31 10 4 1 6 8 7 4 3 2 3 4 6 8 10 15 19 21 22 23 22 23 21 23 29 31 21 18 17 16 16 14 18 16 18 16 13 14 15
15 15 19 29 21 7 4 4 3 2 2 1 2 3 5 4 6 9 12 13 16 16 16 17 17 18 22 21 24 28 28 15 16 17 19 17 17 17 18 16 14 16 16
9 11 21 27 22 7 6 3 4 4 2 4 6 5 5 5 8 10 11 13 15 15 15 15 16 18 19 22 22 29 29 18 18 19 16 16 18 18 15 17 15 18 18
14 13 20 26 17 7 9 8 7 6 3 3 5 7 8 8 7 7 11 14 16 18 18 19 19 20 19 24 28 31 31 27 24 22 19 17 18 17 16 15 14 15 16
16 16 16 23 21 11 10 9 8 8 6 4 5 7 9 9 9 8 8 10 12 15 17 21 24 22 21 24 26 28 29 30 28 23 21 20 20 20 19 19 18 18 19
Wind_Direction
85 45 36 21 341 264 240 189 200 210 205 196 193 218 221 215 208 211 213 208 208 208 203 208 201 200 203 198 196 193 192 182 177 162 156 151 153 159 151 150 139 131 118
108 81 63 56 55 45 218 212 197 214 204 199 217 222 227 220 211 201 207 208 205 206 206 207 200 202 208 202 192 196 188 183 172 171 163 160 165 172 165 159 154 143 135
97 81 65 56 58 57 39 200 230 216 200 202 214 219 224 223 218 207 202 201 204 204 205 212 208 205 207 200 195 197 195 178 177 179 175 155 195 166 169 168 163 157 145
92 66 57 55 53 47 49 74 162 186 198 216 223 213 213 203 204 198 183 179 193 190 186 179 192 195 209 197 195 199 202 182 181 192 216 280 161 177 166 176 165 173 157
70 69 65 47 57 54 58 99 191 218 224 216 220 207 198 200 192 193 180 175 186 197 200 186 193 180 204 232 194 201 206 199 190 193 199 205 164 162 150 162 169 182 158
159 133 67 37 42 18 308 232 229 238 226 217 215 217 212 201 189 191 194 203 205 201 196 199 194 187 189 210 210 217 204 219 217 201 195 197 187 187 168 152 167 168 158
150 177 178 267 298 289 269 245 236 235 227 225 225 222 219 211 206 206 207 200 196 200 199 201 199 192 191 203 206 204 225 227 229 213 192 193 205 190 201 167 153 158 153
183 259 276 278 284 281 282 276 266 253 226 221 224 224 222 215 221 221 215 210 209 220 207 193 193 178 174 175 179 197 223 232 235 227 220 197 207 210 191 179 154 156 160
268 287 302 303 309 304 260 258 272 268 248 237 235 231 224 217 212 216 216 217 207 200 202 196 193 183 176 178 178 209 223 222 219 221 219 204 203 191 200 188 167 163 171
296 293 307 308 303 302 295 254 264 263 254 242 241 240 225 216 219 212 217 216 213 212 198 200 201 196 188 181 181 199 211 217 217 211 204 205 195 181 194 190 169 180 196
314 312 312 310 304 299 288 284 250 253 255 248 252 259 270 199 185 212 233 233 217 206 196 196 198 201 200 193 184 197 203 207 204 196 194 198 177 177 182 181 177 185 191
308 305 309 310 304 305 290 287 267 256 250 255 259 246 217 217 251 233 234 228 215 206 189 192 188 186 188 181 184 190 198 202 192 185 190 179 176 175 176 177 183 186 185
304 305 306 302 302 302 290 291 291 285 278 258 254 246 220 209 221 224 206 209 209 205 189 190 187 179 183 180 185 188 187 186 183 183 187 173 175 176 175 180 178 181 173
297 301 302 296 285 284 280 273 283 285 285 276 265 257 250 238 220 220 208 198 199 193 199 196 195 187 181 182 178 176 178 175 184 179 176 166 167 182 183 186 183 180 171
307 306 301 296 293 268 277 275 273 279 272 277 274 267 256 248 230 213 204 201 190 188 192 188 184 186 182 184 184 183 173 177 175 173 159 154 181 181 183 194 188 177 178
300 304 294 287 281 274 282 293 283 282 278 272 272 270 257 240 232 218 205 200 195 188 190 191 188 183 180 180 177 172 170 174 177 179 165 169 193 188 190 184 193 183 193
327 338 324 293 285 292 305 296 302 293 279 268 269 271 271 251 214 216 209 202 195 187 189 189 190 186 190 189 180 180 173 179 175 177 163 166 181 204 200 189 182 186 184
322 311 302 291 282 289 297 309 311 304 292 276 274 277 271 260 239 208 205 205 188 189 183 192 195 188 191 188 187 173 171 177 183 177 173 177 171 175 194 198 193 187 165
294 295 300 298 278 279 304 307 307 319 310 302 286 294 276 258 237 220 204 207 182 181 189 188 182 178 179 187 187 174 165 172 185 189 191 190 194 190 196 187 175 177 177
304 302 297 300 273 271 298 303 328 314 304 325 311 278 257 241 213 197 201 191 187 181 180 182 178 175 178 187 190 179 181 178 177 179 184 196 205 203 194 183 185 185 183
308 302 295 291 261 266 284 313 323 298 296 288 282 254 242 201 187 175 181 183 176 177 175 173 176 183 190 189 195 185 182 182 178 179 181 191 199 200 188 179 185 188 184
305 295 304 297 287 261 278 178 291 322 311 297 269 243 176 152 163 171 177 178 178 168 168 172 178 184 188 189 194 187 181 189 186 182 183 189 198 193 182 175 190 191 172
300 288 295 287 266 241 258 230 245 288 11 130 96 103 130 143 177 171 164 169 178 167 165 166 165 172 181 192 199 193 190 186 184 177 183 198 193 184 179 185 184 183 170
276 305 300 291 265 210 219 206 165 170 166 122 141 155 128 144 168 174 176 169 173 171 171 171 170 167 177 171 187 191 196 194 180 183 184 191 180 180 180 188 190 190 183
262 260 279 284 265 228 215 201 199 195 188 163 156 160 163 171 192 203 201 199 197 192 181 182 175 167 174 181 193 185 185 187 182 177 175 168 169 176 184 191 194 194 196
294 259 271 281 263 228 225 216 215 218 219 193 181 177 177 184 192 204 208 215 224 212 206 199 193 191 195 196 197 195 190 193 190 176 171 176 178 183 190 195 197 201 203
Height
727 732 734 734 734 736 738 741 750 753 755 758 761 764 765 767 766 768 770 773 776 779 780 781 784 787 788 790 793 796 800 804 810 813 821 825 827 830 830 835 836 838 842
726 731 732 734 735 737 738 741 746 749 752 755 759 761 764 763 764 761 764 768 771 774 776 777 778 783 786 789 790 793 796 801 805 811 819 823 829 830 828 833 836 837 840
731 734 735 737 737 739 740 742 746 749 750 753 755 757 759 761 762 762 762 765 768 771 773 775 776 778 780 783 787 790 791 794 801 806 810 816 812 825 829 833 835 839 841
737 739 739 741 744 745 746 747 748 749 750 749 750 753 756 758 759 761 759 763 767 768 764 768 770 776 782 778 782 785 789 789 796 800 804 803 800 810 822 829 834 839 839
740 742 744 745 746 746 747 747 747 748 748 748 747 749 750 752 755 757 758 761 763 765 768 765 768 769 777 781 782 785 789 789 793 793 799 802 803 804 806 817 829 835 836
743 745 748 748 747 748 748 747 746 747 746 747 745 745 745 745 749 753 755 755 756 760 760 765 766 768 772 783 782 786 788 792 791 793 794 796 801 801 802 810 822 827 836
738 741 743 744 746 746 746 745 744 743 744 746 746 747 747 749 748 749 752 755 756 756 755 761 762 762 770 779 781 784 791 789 791 794 795 792 798 798 801 803 814 821 832
738 738 739 740 742 743 744 745 744 741 739 740 742 743 745 746 748 752 754 754 755 757 757 758 760 762 769 773 778 784 792 793 789 795 797 790 793 797 799 801 807 818 828
735 736 734 734 735 734 734 737 738 737 737 739 740 740 741 742 742 745 749 751 752 753 756 758 761 762 765 770 773 783 789 791 794 795 793 790 792 794 799 801 802 810 820
731 732 730 731 731 731 729 729 733 734 733 735 733 734 735 737 739 740 742 745 747 750 753 755 759 761 764 769 773 783 786 791 792 792 791 791 789 790 798 800 802 809 815
729 729 728 729 727 727 726 725 724 725 727 728 730 731 733 728 733 737 740 742 742 745 749 754 758 761 764 767 772 778 786 789 790 787 788 788 787 789 795 799 801 806 812
728 728 727 726 724 723 722 722 718 717 719 722 724 725 727 730 734 737 733 736 739 742 744 749 757 762 765 766 771 777 783 787 786 784 787 784 787 789 793 795 800 804 809
723 723 723 721 719 722 721 721 718 717 716 715 719 721 721 719 723 730 728 730 733 738 743 747 754 757 762 766 771 775 778 780 780 783 785 784 786 788 791 795 800 804 807
721 719 718 716 718 721 720 719 718 717 717 716 715 716 717 718 716 723 723 716 722 734 741 744 749 752 758 763 766 770 773 775 779 781 783 783 784 789 792 796 800 806 808
718 716 713 712 714 716 717 717 715 715 714 713 712 711 711 713 713 716 717 721 723 726 733 740 744 748 753 757 762 767 768 773 776 779 778 781 784 787 792 796 800 805 808
716 714 711 710 714 714 715 713 713 709 708 709 707 706 706 707 709 710 712 716 721 725 731 736 740 744 747 751 757 761 766 769 773 777 776 779 785 788 793 794 800 802 806
716 716 713 712 712 712 712 711 709 707 705 703 702 701 701 701 703 705 708 711 715 719 725 731 737 738 740 747 752 757 764 769 772 776 775 779 785 790 794 796 801 803 803
722 720 716 714 712 709 710 708 706 704 700 698 697 699 699 699 700 703 704 707 711 715 720 729 734 734 737 743 750 757 762 767 773 773 777 782 784 790 796 799 803 804 803
727 724 718 713 709 706 706 705 703 702 697 695 694 697 699 699 699 701 703 706 707 713 719 724 728 731 736 742 749 754 759 765 770 774 778 781 786 788 795 799 799 802 801
726 724 717 714 710 701 703 704 704 703 699 697 697 699 698 698 699 700 703 705 707 711 717 722 725 728 733 739 746 751 758 763 768 773 777 779 784 788 794 796 797 801 800
723 722 719 711 706 696 700 702 703 702 700 699 697 697 698 697 699 700 702 704 707 711 716 720 724 727 729 737 743 750 755 760 765 770 774 779 783 786 790 794 796 798 800
716 717 715 707 699 693 695 700 701 698 697 696 696 697 697 697 699 699 702 705 708 711 715 718 721 725 732 736 742 748 753 758 762 767 772 776 780 784 788 792 794 797 801
711 712 709 701 691 689 693 695 698 697 696 695 696 696 696 698 699 701 703 705 709 712 715 718 721 726 731 735 740 746 752 756 761 765 770 774 779 782 787 791 794 796 801
706 707 705 698 688 686 691 694 695 696 697 695 693 695 697 699 702 703 704 706 709 711 714 717 720 724 730 733 738 744 751 757 760 765 769 773 777 781 786 790 794 796 800
695 700 700 694 682 684 688 691 693 694 694 695 694 694 696 699 702 704 705 706 708 709 712 715 718 721 726 729 734 739 746 752 757 763 768 772 777 781 785 789 792 795 799
687 690 692 689 678 679 684 687 689 692 692 692 694 694 695 698 700 703 705 706 708 710 713 715 718 721 726 730 734 739 744 749 754 761 765 770 773 777 781 785 788 791 794